GW3424 Weather Reports


Display with metric or nautical units.
time (UTC)temp
F
wind
direction
speed
MPH
gust
MPH
rain 1hr
in
rain 24hr
in
rain mn
in
humidity
%
barometer
mb
20260509235549 102 360 12.0 17.0 0.00 0.00 0.00 8 969.4
20260509235049 102 360 12.0 19.0 0.00 0.00 0.00 8 969.6
20260509234549 102 360 13.0 19.0 0.00 0.00 0.00 8 969.5
20260509234049 103 360 12.0 18.0 0.00 0.00 0.00 8 969.4
20260509233550 102 360 7.0 16.0 0.00 0.00 0.00 8 969.5
20260509233049 102 360 11.0 16.0 0.00 0.00 0.00 8 969.6
20260509232549 103 360 8.0 18.0 0.00 0.00 0.00 8 969.5
20260509232049 103 360 9.0 18.0 0.00 0.00 0.00 8 969.5
20260509231551 103 360 10.0 15.0 0.00 0.00 0.00 9 969.5
20260509231049 102 360 9.0 16.0 0.00 0.00 0.00 9 969.6
20260509230549 102 360 11.0 16.0 0.00 0.00 0.00 9 969.7
20260509230051 102 360 8.0 15.0 0.00 0.00 0.00 9 969.5
20260509225548 103 360 10.0 16.0 0.00 0.00 0.00 9 969.7
20260509225048 103 360 7.0 13.0 0.00 0.00 0.00 9 969.9
20260509224549 103 360 9.0 13.0 0.00 0.00 0.00 8 969.9
20260509224049 103 360 6.0 16.0 0.00 0.00 0.00 8 969.8
20260509223549 103 360 7.0 15.0 0.00 0.00 0.00 9 969.8
20260509223052 103 360 6.0 15.0 0.00 0.00 0.00 9 970.1
20260509222549 102 360 11.0 15.0 0.00 0.00 0.00 9 970.1
20260509222049 103 360 8.0 15.0 0.00 0.00 0.00 9 970.1
20260509221550 103 360 7.0 15.0 0.00 0.00 0.00 8 970.2
20260509221049 103 360 8.0 12.0 0.00 0.00 0.00 9 970.2
20260509220548 102 360 6.0 11.0 0.00 0.00 0.00 9 970.4
20260509220051 102 360 4.0 11.0 0.00 0.00 0.00 9 970.4
20260509215550 102 360 6.0 14.0 0.00 0.00 0.00 9 970.5
20260509215050 102 360 10.0 15.0 0.00 0.00 0.00 9 970.6
20260509214549 102 360 9.0 16.0 0.00 0.00 0.00 10 970.6
20260509214049 102 360 8.0 18.0 0.00 0.00 0.00 11 970.8
20260509213549 102 360 12.0 18.0 0.00 0.00 0.00 10 970.9
20260509213103 102 360 8.0 17.0 0.00 0.00 0.00 9 970.8
20260509212548 102 360 12.0 17.0 0.00 0.00 0.00 9 971.0
20260509212048 102 360 6.0 13.0 0.00 0.00 0.00 10 971.1
20260509211554 102 360 9.0 13.0 0.00 0.00 0.00 11 971.1
20260509211049 102 360 3.0 13.0 0.00 0.00 0.00 10 971.1
20260509210549 102 360 4.0 14.0 0.00 0.00 0.00 10 971.3
20260509210051 101 360 5.0 14.0 0.00 0.00 0.00 9 971.4
20260509205552 101 360 8.0 14.0 0.00 0.00 0.00 10 971.5
20260509205049 101 360 6.0 14.0 0.00 0.00 0.00 10 971.6
20260509204549 101 360 6.0 14.0 0.00 0.00 0.00 10 971.7
20260509204049 101 360 10.0 14.0 0.00 0.00 0.00 10 971.9
20260509203548 101 360 4.0 12.0 0.00 0.00 0.00 10 971.9
20260509203049 100 360 6.0 17.0 0.00 0.00 0.00 9 971.9
20260509202549 100 360 10.0 17.0 0.00 0.00 0.00 9 972.0
20260509202049 100 360 9.0 21.0 0.00 0.00 0.00 9 972.1
20260509201549 100 360 11.0 21.0 0.00 0.00 0.00 8 972.2
20260509201048 100 360 11.0 14.0 0.00 0.00 0.00 9 972.2
20260509200549 99 360 3.0 11.0 0.00 0.00 0.00 10 972.3
20260509200053 99 360 7.0 14.0 0.00 0.00 0.00 11 972.4
20260509195548 99 360 8.0 14.0 0.00 0.00 0.00 11 972.4
20260509195048 99 360 7.0 14.0 0.00 0.00 0.00 11 972.5
20260509194556 98 360 9.0 14.0 0.00 0.00 0.00 11 972.6
20260509194049 97 360 4.0 9.0 0.00 0.00 0.00 13 972.6
20260509193548 97 360 6.0 9.0 0.00 0.00 0.00 14 972.6
20260509193049 97 360 7.0 10.0 0.00 0.00 0.00 13 972.7
20260509192548 97 360 4.0 11.0 0.00 0.00 0.00 14 972.9
20260509192049 97 360 7.0 11.0 0.00 0.00 0.00 14 973.0
20260509191603 98 360 4.0 8.0 0.00 0.00 0.00 14 973.0
20260509191048 98 360 5.0 8.0 0.00 0.00 0.00 13 973.0
20260509190552 97 360 2.0 9.0 0.00 0.00 0.00 14 973.2
20260509190050 97 360 3.0 9.0 0.00 0.00 0.00 14 973.3
20260509185549 97 360 4.0 8.0 0.00 0.00 0.00 14 973.2
20260509185048 97 360 3.0 6.0 0.00 0.00 0.00 14 973.3
20260509184557 97 360 0.0 6.0 0.00 0.00 0.00 15 973.5
20260509184048 96 360 3.0 8.0 0.00 0.00 0.00 15 973.5
20260509183549 96 360 4.0 8.0 0.00 0.00 0.00 15 973.6
20260509183054 95 360 0.0 8.0 0.00 0.00 0.00 15 973.6
20260509182549 94 360 4.0 9.0 0.00 0.00 0.00 15 973.7
20260509182051 94 360 1.0 9.0 0.00 0.00 0.00 16 973.7
20260509181553 94 360 5.0 10.0 0.00 0.00 0.00 16 973.7
20260509181049 94 360 4.0 10.0 0.00 0.00 0.00 16 973.8
20260509180549 94 360 3.0 10.0 0.00 0.00 0.00 16 973.9
20260509180058 94 360 5.0 10.0 0.00 0.00 0.00 16 974.0
20260509175554 93 360 4.0 10.0 0.00 0.00 0.00 16 974.1
20260509175049 93 360 6.0 10.0 0.00 0.00 0.00 16 974.0
20260509174549 94 360 4.0 9.0 0.00 0.00 0.00 16 974.1
20260509174049 94 360 3.0 5.0 0.00 0.00 0.00 16 974.1
20260509173548 93 360 1.0 8.0 0.00 0.00 0.00 15 974.1
20260509173102 93 360 3.0 9.0 0.00 0.00 0.00 16 974.2
20260509172549 93 360 4.0 9.0 0.00 0.00 0.00 16 974.2
20260509172049 93 360 3.0 6.0 0.00 0.00 0.00 16 974.2
20260509171550 93 360 0.0 6.0 0.00 0.00 0.00 16 974.2
20260509171048 92 360 3.0 8.0 0.00 0.00 0.00 16 974.2
20260509170549 91 360 2.0 9.0 0.00 0.00 0.00 17 974.3
20260509170049 90 360 4.0 9.0 0.00 0.00 0.00 17 974.5
20260509165549 90 360 3.0 10.0 0.00 0.00 0.00 18 974.4
20260509165048 89 360 5.0 10.0 0.00 0.00 0.00 18 974.4
20260509164549 90 360 3.0 10.0 0.00 0.00 0.00 18 974.3
20260509164049 89 360 4.0 9.0 0.00 0.00 0.00 19 974.5
20260509163550 88 360 3.0 12.0 0.00 0.00 0.00 19 974.4
20260509163052 88 360 4.0 10.0 0.00 0.00 0.00 18 974.4
20260509162549 88 360 5.0 11.0 0.00 0.00 0.00 19 974.3
20260509162049 87 360 6.0 11.0 0.00 0.00 0.00 19 974.4
20260509161559 87 360 7.0 12.0 0.00 0.00 0.00 19 974.4
20260509161049 87 360 5.0 11.0 0.00 0.00 0.00 19 974.4
20260509160549 87 360 7.0 12.0 0.00 0.00 0.00 18 974.4
20260509160049 86 360 5.0 12.0 0.00 0.00 0.00 19 974.2
20260509155548 86 360 7.0 10.0 0.00 0.00 0.00 20 974.4
20260509155048 85 360 5.0 11.0 0.00 0.00 0.00 21 974.4
20260509154551 85 360 6.0 11.0 0.00 0.00 0.00 21 974.3
20260509154048 84 360 6.0 11.0 0.00 0.00 0.00 21 974.3
20260509153549 84 360 7.0 10.0 0.00 0.00 0.00 21 974.3
20260509153058 84 360 7.0 10.0 0.00 0.00 0.00 21 974.5
20260509152549 83 360 7.0 10.0 0.00 0.00 0.00 21 974.5
20260509152049 83 360 7.0 10.0 0.00 0.00 0.00 22 974.4
20260509151549 83 360 5.0 10.0 0.00 0.00 0.00 23 974.4
20260509151049 82 360 7.0 10.0 0.00 0.00 0.00 22 974.4
20260509150548 82 360 6.0 10.0 0.00 0.00 0.00 24 974.5
20260509150049 81 360 6.0 10.0 0.00 0.00 0.00 25 974.4
20260509145549 81 360 7.0 11.0 0.00 0.00 0.00 26 974.4
20260509145049 80 360 9.0 12.0 0.00 0.00 0.00 25 974.3
20260509144551 80 360 9.0 12.0 0.00 0.00 0.00 26 974.3
20260509144048 79 360 9.0 12.0 0.00 0.00 0.00 26 974.3
20260509143549 79 360 8.0 13.0 0.00 0.00 0.00 26 974.3
20260509143049 79 360 9.0 13.0 0.00 0.00 0.00 26 974.3
20260509142548 78 360 10.0 13.0 0.00 0.00 0.00 26 974.1
20260509142048 78 360 9.0 13.0 0.00 0.00 0.00 26 974.1
20260509141549 77 360 10.0 13.0 0.00 0.00 0.00 25 974.1
20260509141049 77 360 11.0 13.0 0.00 0.00 0.00 25 974.0
20260509140551 76 360 9.0 14.0 0.00 0.00 0.00 25 973.9
20260509135549 76 360 9.0 12.0 0.00 0.00 0.00 25 973.9
20260509135049 76 360 9.0 12.0 0.00 0.00 0.00 25 973.7
20260509134551 77 360 8.0 12.0 0.00 0.00 0.00 24 973.7
20260509134049 79 360 7.0 12.0 0.00 0.00 0.00 23 973.6
20260509133551 83 360 10.0 12.0 0.00 0.00 0.00 20 973.5
20260509133049 85 360 2.0 6.0 0.00 0.00 0.00 16 973.4
20260509132548 85 360 3.0 8.0 0.00 0.00 0.00 15 973.2
20260509132048 84 360 3.0 9.0 0.00 0.00 0.00 15 973.0
20260509131549 84 360 3.0 10.0 0.00 0.00 0.00 16 973.1
20260509131048 84 360 6.0 12.0 0.00 0.00 0.00 16 973.1
20260509130549 84 360 8.0 14.0 0.00 0.00 0.00 16 973.0
20260509130049 84 360 10.0 17.0 0.00 0.00 0.00 16 972.8
20260509125549 84 360 11.0 20.0 0.00 0.00 0.00 16 973.0
20260509125048 84 360 11.0 18.0 0.00 0.00 0.00 16 972.9
20260509124552 84 360 7.0 13.0 0.00 0.00 0.00 16 972.9
20260509124049 84 360 9.0 13.0 0.00 0.00 0.00 16 972.8
20260509123549 84 360 9.0 15.0 0.00 0.00 0.00 16 972.7
20260509123049 84 360 9.0 16.0 0.00 0.00 0.00 16 972.7
20260509122548 84 360 9.0 16.0 0.00 0.00 0.00 16 972.6
20260509122048 84 360 11.0 15.0 0.00 0.00 0.00 16 972.6
20260509121550 84 360 7.0 14.0 0.00 0.00 0.00 16 972.6
20260509121053 85 360 7.0 15.0 0.00 0.00 0.00 17 972.6
20260509120549 85 360 8.0 17.0 0.00 0.00 0.00 16 972.6
20260509120050 85 360 12.0 17.0 0.00 0.00 0.00 16 972.6
20260509115548 85 360 10.0 16.0 0.00 0.00 0.00 16 972.5
20260509115048 85 360 12.0 16.0 0.00 0.00 0.00 17 972.5
20260509114548 85 360 9.0 17.0 0.00 0.00 0.00 17 972.6
20260509114049 85 360 8.0 17.0 0.00 0.00 0.00 17 972.7
20260509113549 85 360 7.0 16.0 0.00 0.00 0.00 17 972.5
20260509113049 85 360 10.0 16.0 0.00 0.00 0.00 17 972.4
20260509112548 85 360 9.0 14.0 0.00 0.00 0.00 17 972.4
20260509112049 85 360 7.0 14.0 0.00 0.00 0.00 17 972.4
20260509111552 85 360 8.0 15.0 0.00 0.00 0.00 17 972.4
20260509111049 86 360 10.0 20.0 0.00 0.00 0.00 17 972.5
20260509110551 86 360 7.0 20.0 0.00 0.00 0.00 17 972.3
20260509110049 86 360 7.0 14.0 0.00 0.00 0.00 17 972.3
20260509105549 86 360 7.0 18.0 0.00 0.00 0.00 17 972.2
20260509105049 86 360 9.0 18.0 0.00 0.00 0.00 17 972.2
20260509104554 86 360 9.0 16.0 0.00 0.00 0.00 17 972.2
20260509104048 86 360 8.0 17.0 0.00 0.00 0.00 17 972.4
20260509103548 86 360 10.0 17.0 0.00 0.00 0.00 17 972.2
20260509103058 86 360 10.0 16.0 0.00 0.00 0.00 18 972.1
20260509102549 86 360 10.0 16.0 0.00 0.00 0.00 18 972.1
20260509102049 86 360 9.0 16.0 0.00 0.00 0.00 18 972.1
20260509101549 87 360 8.0 17.0 0.00 0.00 0.00 18 972.2
20260509101048 87 360 9.0 17.0 0.00 0.00 0.00 18 972.2
20260509100548 87 360 11.0 16.0 0.00 0.00 0.00 17 972.1
20260509100049 87 360 9.0 16.0 0.00 0.00 0.00 17 972.1
20260509095549 87 360 10.0 17.0 0.00 0.00 0.00 17 972.1
20260509095049 87 360 11.0 16.0 0.00 0.00 0.00 17 972.0
20260509094557 87 360 8.0 17.0 0.00 0.00 0.00 17 972.1
20260509094048 88 360 10.0 17.0 0.00 0.00 0.00 17 972.2
20260509093549 88 360 10.0 18.0 0.00 0.00 0.00 17 972.2
20260509093049 88 360 13.0 18.0 0.00 0.00 0.00 16 972.1
20260509092549 88 360 11.0 18.0 0.00 0.00 0.00 16 972.1
20260509092052 88 360 10.0 18.0 0.00 0.00 0.00 16 972.0
20260509091554 88 360 12.0 18.0 0.00 0.00 0.00 15 972.1
20260509091049 89 360 9.0 18.0 0.00 0.00 0.00 15 972.1
20260509090549 89 360 12.0 19.0 0.00 0.00 0.00 15 972.1
20260509090055 89 360 13.0 20.0 0.00 0.00 0.00 15 972.0
20260509085548 89 360 14.0 21.0 0.00 0.00 0.00 14 972.0
20260509085048 89 360 14.0 23.0 0.00 0.00 0.00 14 972.1
20260509084558 89 360 13.0 24.0 0.00 0.00 0.00 14 972.1
20260509084049 89 360 12.0 22.0 0.00 0.00 0.00 14 972.0
20260509083548 90 360 11.0 22.0 0.00 0.00 0.00 14 971.9
20260509083104 90 360 15.0 21.0 0.00 0.00 0.00 13 971.9
20260509082548 90 360 12.0 22.0 0.00 0.00 0.00 13 971.9
20260509082052 90 360 13.0 22.0 0.00 0.00 0.00 13 972.1
20260509081549 90 360 13.0 23.0 0.00 0.00 0.00 13 972.0
20260509081049 90 360 12.0 24.0 0.00 0.00 0.00 12 971.9
20260509080552 90 360 13.0 18.0 0.00 0.00 0.00 12 971.9
20260509080051 90 360 11.0 17.0 0.00 0.00 0.00 12 971.9
20260509075548 90 360 9.0 17.0 0.00 0.00 0.00 12 972.0
20260509075050 90 360 8.0 18.0 0.00 0.00 0.00 12 972.0
20260509074608 90 360 9.0 18.0 0.00 0.00 0.00 12 971.9
20260509074048 91 360 10.0 16.0 0.00 0.00 0.00 12 971.9
20260509073549 91 360 8.0 15.0 0.00 0.00 0.00 12 972.0
20260509073103 91 360 8.0 15.0 0.00 0.00 0.00 12 972.1
20260509072549 91 360 9.0 16.0 0.00 0.00 0.00 12 972.0
20260509072048 91 360 9.0 16.0 0.00 0.00 0.00 12 972.0
20260509071556 91 360 8.0 16.0 0.00 0.00 0.00 12 972.0
20260509071049 91 360 9.0 17.0 0.00 0.00 0.00 12 972.0
20260509070549 91 360 11.0 19.0 0.00 0.00 0.00 12 972.1
20260509070054 91 360 10.0 19.0 0.00 0.00 0.00 12 972.1
20260509065548 91 360 11.0 19.0 0.00 0.00 0.00 12 972.1
20260509065048 91 360 9.0 19.0 0.00 0.00 0.00 12 972.0
20260509064549 91 360 11.0 17.0 0.00 0.00 0.00 12 972.0
20260509064048 91 360 12.0 17.0 0.00 0.00 0.00 12 972.1
20260509063549 91 360 8.0 19.0 0.00 0.00 0.00 12 972.1
20260509063059 92 360 11.0 19.0 0.00 0.00 0.00 12 972.0
20260509062549 92 360 11.0 18.0 0.00 0.00 0.00 12 972.0
20260509062049 92 360 12.0 18.0 0.00 0.00 0.00 12 972.0
20260509061548 92 360 13.0 19.0 0.00 0.00 0.00 12 972.0
20260509061050 92 360 11.0 19.0 0.00 0.00 0.00 12 972.1
20260509060549 92 360 9.0 18.0 0.00 0.00 0.00 13 972.1
20260509060106 92 360 10.0 21.0 0.00 0.00 0.00 13 972.0
20260509055549 92 360 13.0 19.0 0.00 0.00 0.00 13 971.8
20260509055048 92 360 11.0 18.0 0.00 0.00 0.00 13 972.0
20260509054548 92 360 10.0 18.0 0.00 0.00 0.00 13 971.9
20260509054048 92 360 10.0 21.0 0.00 0.00 0.00 13 971.9
20260509053549 93 360 12.0 21.0 0.00 0.00 0.00 13 971.8
20260509053100 93 360 11.0 21.0 0.00 0.00 0.00 13 971.9
20260509052549 93 360 13.0 21.0 0.00 0.00 0.00 13 971.9
20260509052048 93 360 13.0 22.0 0.00 0.00 0.00 13 972.0
20260509051549 93 360 15.0 22.0 0.00 0.00 0.00 13 971.9
20260509051049 93 360 11.0 22.0 0.00 0.00 0.00 13 971.9
20260509050552 93 360 15.0 22.0 0.00 0.00 0.00 13 971.9
20260509050049 93 360 14.0 25.0 0.00 0.00 0.00 13 972.0
20260509045552 93 360 13.0 23.0 0.00 0.00 0.00 13 971.9
20260509045048 93 360 13.0 26.0 0.00 0.00 0.00 13 971.7
20260509044548 93 360 14.0 26.0 0.00 0.00 0.00 13 971.7
20260509044049 93 360 12.0 19.0 0.00 0.00 0.00 13 971.8
20260509043548 93 360 10.0 19.0 0.00 0.00 0.00 13 971.8
20260509043054 93 360 12.0 20.0 0.00 0.00 0.00 13 971.7
20260509042548 94 360 11.0 22.0 0.00 0.00 0.00 13 971.5
20260509042049 94 360 12.0 22.0 0.00 0.00 0.00 13 971.5
20260509041549 94 360 14.0 21.0 0.00 0.00 0.00 13 971.6
20260509041049 94 360 10.0 21.0 0.00 0.00 0.00 13 971.4
20260509040548 94 360 12.0 21.0 0.00 0.00 0.00 13 971.5
20260509035549 94 360 16.0 25.0 0.00 0.00 0.00 13 971.1
20260509035049 94 360 13.0 21.0 0.00 0.00 0.00 13 971.2
20260509034549 94 360 15.0 21.0 0.00 0.00 0.00 13 971.1
20260509034048 94 360 14.0 23.0 0.00 0.00 0.00 13 971.0
20260509033548 95 360 10.0 22.0 0.00 0.00 0.00 13 971.1
20260509033110 95 360 10.0 21.0 0.00 0.00 0.00 13 971.1
20260509032549 95 360 15.0 20.0 0.00 0.00 0.00 13 971.0
20260509032049 95 360 12.0 18.0 0.00 0.00 0.00 13 970.9
20260509031550 95 360 10.0 21.0 0.00 0.00 0.00 13 970.8
20260509031050 95 360 11.0 19.0 0.00 0.00 0.00 13 970.8
20260509030549 96 360 12.0 19.0 0.00 0.00 0.00 13 970.7
20260509030049 96 360 9.0 16.0 0.00 0.00 0.00 13 970.7
20260509025548 96 360 10.0 16.0 0.00 0.00 0.00 13 970.6
20260509025049 96 360 10.0 16.0 0.00 0.00 0.00 13 970.5
20260509024557 97 360 10.0 16.0 0.00 0.00 0.00 13 970.5
20260509024050 97 360 11.0 16.0 0.00 0.00 0.00 13 970.4
20260509023549 98 360 11.0 17.0 0.00 0.00 0.00 12 970.5
20260509023048 98 360 11.0 17.0 0.00 0.00 0.00 12 970.4
20260509022550 98 360 6.0 13.0 0.00 0.00 0.00 12 970.2
20260509022050 98 360 7.0 13.0 0.00 0.00 0.00 12 970.2
20260509021549 98 360 6.0 13.0 0.00 0.00 0.00 12 970.2
20260509021049 98 360 7.0 15.0 0.00 0.00 0.00 11 970.2
20260509020549 99 360 8.0 20.0 0.00 0.00 0.00 11 970.1
20260509015549 99 360 10.0 14.0 0.00 0.00 0.00 11 969.9
20260509015049 99 360 8.0 16.0 0.00 0.00 0.00 11 969.9
20260509014548 99 360 10.0 16.0 0.00 0.00 0.00 11 970.0
20260509014048 99 360 10.0 14.0 0.00 0.00 0.00 11 969.9
20260509013548 99 360 9.0 14.0 0.00 0.00 0.00 11 969.9
20260509013048 100 360 10.0 16.0 0.00 0.00 0.00 11 969.9
20260509012548 100 360 11.0 16.0 0.00 0.00 0.00 11 970.1
20260509012048 100 360 9.0 17.0 0.00 0.00 0.00 11 970.0
20260509011555 100 360 9.0 17.0 0.00 0.00 0.00 11 970.1
20260509011048 100 360 9.0 17.0 0.00 0.00 0.00 11 970.1
20260509010552 100 360 6.0 15.0 0.00 0.00 0.00 11 970.1
20260509010048 100 360 9.0 15.0 0.00 0.00 0.00 10 970.2
20260509005549 100 360 11.0 20.0 0.00 0.00 0.00 11 970.1
20260509005048 100 360 13.0 20.0 0.00 0.00 0.00 10 970.1
20260509004550 100 360 13.0 18.0 0.00 0.00 0.00 10 970.3
20260509004048 100 360 10.0 15.0 0.00 0.00 0.00 10 970.2
20260509003548 100 360 9.0 17.0 0.00 0.00 0.00 11 970.3
20260509003055 100 360 12.0 17.0 0.00 0.00 0.00 10 970.3
20260509002548 100 360 9.0 19.0 0.00 0.00 0.00 11 970.3
20260509002048 100 360 11.0 21.0 0.00 0.00 0.00 11 970.4
20260509001548 100 360 9.0 21.0 0.00 0.00 0.00 11 970.4
20260509001050 100 360 9.0 17.0 0.00 0.00 0.00 11 970.5
20260509000550 100 360 8.0 19.0 0.00 0.00 0.00 11 970.6
20260509000048 100 360 11.0 19.0 0.00 0.00 0.00 11 970.5